Погода в Житомире

Погода в Житомире : погода сейчас, прогноз погоды и архив. Всё, что Вы хотите узнать о погоде в Житомире!

Хотите узнать прогноз погоды в Житомире? Тогда Вам сюда: Погода в Житомире

Поиск расширенной информации на нашем сайте:

Другие новости

Новости СМИ2

Главная страница сайта

Новости сайта

03.07.2017

Напоминаем, что на нашем специализированном сайте Метеоцентр.Азия вы можете получить высокодетализированные автоматические прогнозы погоды по пунктам России, СНГ и мира в авиационном формате (включающие направление и скорость ветра, видимость, явления погоды, количество и форму облачности, нижнюю и верхнюю границу облачности).


Погода в Житомире - сегодня

Время (UTC), дата Ветер
(°,м/с) 
Видим.   Явления Облачность Т
(°С)
Тd
(°С)
f(%) Тe
(°С)
Pmin
(гПа)
dP
(гПа)
Po
(мм)
O2
(г/м3)
Тmin Tmax R s Состояние
почвы
12 12.10.18 120 (ЮВ) 10 км    4/3 600 м средняя 
[Sc|Ac trans]
+14.2 +8.2 67 +15  1033.7  -0.9  755  288           
15 12.10.18 тихо ()   10 км    ясно 
+14.8 +9.1 69 +15  1033.2  -0.5  755  287           
18 12.10.18 тихо ()   10 км    ясно 
+9.8 +6.8 82 +10  1033.8  0.2  755  293    +16.5       
21 12.10.18 тихо ()   4000 м  дымка  ясно 
+5.8 +4.4 91 +6  1034.6  0.3  755  297           
00 13.10.18 тихо ()   4000 м  дымка  ясно 
+3.4 +2.6 94 +3  1035  0.2  756  300           
06 13.10.18 тихо ()   10 км    ясно 
+4.3 +1.8 84 +4  1035.4  0.6  756  300  +1.7         
09 13.10.18 040 (СВ) 10 км    ясно 
+14.2 +4.7 53 +15  1034.4  -0.1  756  289           
12 13.10.18 170 (Ю) 10 км    ясно 
+17.2 +1.1 34 +18  1033.1  -1  755  286           
15 13.10.18 тихо ()   10 км    ясно 
+16.4 +1.4 36 +16  1032  -1.1  754  287           
18 13.10.18 тихо ()   10 км    ясно 
+7.5 +4.5 81 +8  1033.2  0.3  755  295    +18.2       
21 13.10.18 тихо ()   10 км    ясно 
+5.1 +3.2 88 +5  1033  -0.4  754  298           
00 14.10.18 тихо ()   4000 м  дымка  ясно 
+3.2 +2.2 93 +3  1033.4  0.2  754  300           
03 14.10.18 тихо ()   4000 м  дымка  ясно 
+2.2 +1.4 94 +2  1033.2  -0.3  754  301           
06 14.10.18 тихо ()   4000 м  дымка  ясно 
+3.5 +2 90 +4  1033.4  0.3  754  300  +0.7         
09 14.10.18 180 (Ю) 10 км    3/0 верхняя 
[Ci fib]
+15.9 +1.3 37 +17  1032.3  0.1  755  287           
12 14.10.18 030 (СВ) 10 км    4/0 верхняя 
[Ci fib]
+17.8 +1.8 34 +19  1030.9  -1.2  754  285           
15 14.10.18 тихо ()   10 км    3/0 верхняя 
[Ci fib]
+16.2 +3.9 44 +16  1029.7  -1.3  753  286           
18 14.10.18 тихо ()   10 км    ясно 
+7.9 +4.5 79 +8  1030.6  0.1  753  294    +18.4       
21 14.10.18 тихо ()   10 км    ясно 
+5.3 +2.9 84 +5  1030.9  0.1  753  297           
00 15.10.18 тихо ()   4000 м  дымка  ясно 
+3.4 +2.1 91 +3  1031.1  753  299           
03 15.10.18 тихо ()   2000 м  дымка  ясно 
+2.4 +2.1 98 +2  1031.2  753  300           
06 15.10.18 тихо ()   4000 м  дымка  8/0 верхняя 
[Ci fib]
+3.6 +2.3 91 +4  1031.2  0.1  753  299  +1.8         
09 15.10.18 150 (ЮВ) 10 км    6/0 верхняя 
[Ci fib]
+15.4 +4.2 47 +17  1030.3  0.2  753  287           
12 15.10.18 140 (ЮВ) 10 км    8/0 средняя, верхняя 
[Ac trans|Ci fib]
+18.6 +4.9 40 +20  1028.7  -1.2  752  283           
15 15.10.18 тихо ()   10 км    9/0 верхняя 
[Ci fib]
+16.2 +6.1 51 +16  1027.9  -1  751  285           
Время (UTC), дата Ветер
(°,м/с) 
Видим.   Явления Облачность Т
(°С)
Тd
(°С)
f(%) Тe
(°С)
Pmin
(гПа)
dP
(гПа)
Po
(мм)
O2
(г/м3)
Тmin Tmax R s Состояние
почвы

Для получения пояснительной информации подведите курсор к названию столбца.

ПОГОДА в Житомире - архив

Всё, что Вы хотите узнать о погоде в Житомире - удобно и подробно!

Выберите нужную дату (начиная с 1 января 2015* года) и нажмите кнопку "Найти".
Будут отображены архивные сводки погоды по пункту Житомир, начиная с указанной даты.


Отображать данные в формате CSV (для использования в таблицах Excel)


Внимание! Наш архив погоды предназначен исключительно для личного некоммерческого использования в познавательных целях. Если Вам необходимы официальные справки о состоянии погоды (для производственных, юридических, коммерческих и т.п. целей), обращайтесь в органы Росгидромета.

*Примечание: данная дата относится к архиву по метеостанциям СССР (Россия, СНГ, Балтия).
Архив по метеостанциям Зарубежной Европы и Азии (кроме Китая) хранится 10 дней, по другим регионам земного шара (Китай, Африка, Америка, Австралия, Океания) - 1 день.

Житомир - район местоположения метеостанции


Название, широта, долгота, высота метеостанции:
Житомир 50.2°ш. 28.7°д. 224 м над ур. моря [Украина]

Дополнительная информация

В oтличие oт бoльшинства пoгoдных сайтoв мы публикуем пoдрoбную метеoинфoрмацию в детальнoм прoфессиoнальнoм фoрмате.

Характеристики температуры и влажнoсти вoздуха измеряются на высoте 2 м в тени вдали oт зданий и деревьев.
Скoрoсть ветра измеряется на высoте 10 м (на урoвне рoста челoвека скoрoсть ветра ниже в 1.5-2 раза). Если метеoстанция нахoдится в гoрoде или в лесу, тo скoрoсть ветра занижена на 2-4 м/с пo сравнению с oткрытым местoм. Скoрoсть ветра над акватoриями крупных рек и oзёр, а также на вершинах хoлмoв на 2-5 м/с выше, чем в oбычных услoвиях.
Атмoсфернoе давление в разных тoчках местнoсти мoжет значительнo oтличаться oт давления на метеoстанции, в зависимoсти oт услoвий рельефа (при пoдъёме на 10 м давление пoнижается примернo на 1 мм рт.ст.).